カタログに戻る

STARLINK-1260

運用中通信VLEO
NORAD 45404·PAYLOAD·🇺🇸 United States

打ち上げ Mar 18, 2020 から Cape Canaveral Space Force Station

Loading…

次のパス (今後24時間)

TLE

最新Source: CelesTrak SupGP

元期: Sep 14, 2026, 21:32 UTC

1 45404C 20019AW  26257.89770833  .00007705  00000+0  15402-3 0  2576
2 45404  53.1518 319.5584 0003920  20.5038 297.0053 15.46194945    14

AllMySatでSTARLINK-1260をリアルタイム追跡

Download on the App Store